Time,TemperatureF,DewpointF,PressureIn,WindDirection,WindDirectionDegrees,WindSpeedMPH,WindSpeedGustMPH,Humidity,HourlyPrecipIn,Conditions,Clouds,dailyrainin,SoftwareType,DateUTC
2013-09-26 00:12:00,63.0,62.0,29.91,SSW,195,0.0,0.0,95,0.00,,,0.00,,2013-09-26 05:12:00,
2013-09-26 00:23:00,63.0,62.0,29.91,SSW,195,0.0,0.0,95,0.00,,,0.00,,2013-09-26 05:23:00,
2013-09-26 00:43:00,63.0,62.0,29.91,SSW,195,0.0,0.0,95,0.00,,,0.00,,2013-09-26 05:43:00,
2013-09-26 00:52:00,63.0,62.0,29.91,SSW,195,0.0,0.0,96,0.00,,,0.00,,2013-09-26 05:52:00,
2013-09-26 01:12:00,64.0,63.0,29.91,SSW,195,0.0,0.0,96,0.00,,,0.00,,2013-09-26 06:12:00,
2013-09-26 01:22:00,63.0,62.0,29.91,SSW,195,0.0,0.0,95,0.00,,,0.00,,2013-09-26 06:22:00,
2013-09-26 01:42:00,63.0,62.0,29.91,SSW,195,0.0,0.0,96,0.00,,,0.00,,2013-09-26 06:42:00,
2013-09-26 01:53:00,63.0,62.0,29.91,SSW,195,0.0,0.0,96,0.00,,,0.00,,2013-09-26 06:53:00,
2013-09-26 02:12:00,63.0,62.0,29.92,SSW,195,0.0,0.0,95,0.00,,,0.00,,2013-09-26 07:12:00,
2013-09-26 02:22:00,62.0,61.0,29.92,SSW,195,0.0,0.0,96,0.00,,,0.00,,2013-09-26 07:22:00,
2013-09-26 02:42:00,63.0,62.0,29.92,SSW,195,0.0,0.0,96,0.00,,,0.00,,2013-09-26 07:42:00,
2013-09-26 02:53:00,63.0,62.0,29.92,SSW,195,0.0,0.0,96,0.00,,,0.00,,2013-09-26 07:53:00,
2013-09-26 03:11:00,62.0,61.0,29.92,SSW,195,0.0,0.0,96,0.00,,,0.00,,2013-09-26 08:11:00,
2013-09-26 03:22:00,62.0,61.0,29.93,SSW,195,0.0,0.0,95,0.00,,,0.00,,2013-09-26 08:22:00,
2013-09-26 03:42:00,62.0,61.0,29.92,SSW,195,0.0,0.0,95,0.00,,,0.00,,2013-09-26 08:42:00,
2013-09-26 03:52:00,62.0,61.0,29.93,SSW,195,0.0,0.0,95,0.00,,,0.00,,2013-09-26 08:52:00,
2013-09-26 04:11:00,61.0,60.0,29.93,SSW,195,0.0,0.0,95,0.00,,,0.00,,2013-09-26 09:11:00,
2013-09-26 04:22:00,61.0,60.0,29.94,SSW,195,0.0,0.0,96,0.00,,,0.00,,2013-09-26 09:22:00,
2013-09-26 04:43:00,60.0,59.0,29.95,SSW,195,0.0,0.0,95,0.00,,,0.00,,2013-09-26 09:43:00,
2013-09-26 04:53:00,60.0,59.0,29.95,SSW,195,0.0,0.0,96,0.00,,,0.00,,2013-09-26 09:53:00,
2013-09-26 05:12:00,60.0,59.0,29.95,SSW,195,0.0,0.0,96,0.00,,,0.00,,2013-09-26 10:12:00,
2013-09-26 05:23:00,60.0,59.0,29.96,SSW,195,0.0,0.0,96,0.00,,,0.00,,2013-09-26 10:23:00,
2013-09-26 05:42:00,60.0,59.0,29.96,SSW,195,0.0,0.0,97,0.00,,,0.00,,2013-09-26 10:42:00,
2013-09-26 05:53:00,60.0,59.0,29.97,SSW,195,0.0,0.0,97,0.01,,,0.01,,2013-09-26 10:53:00,
2013-09-26 06:12:00,60.0,59.0,29.97,SSE,148,0.0,0.0,97,0.01,,,0.01,,2013-09-26 11:12:00,
2013-09-26 06:22:00,60.0,59.0,29.97,SSE,148,0.0,0.0,97,0.01,,,0.01,,2013-09-26 11:22:00,
2013-09-26 06:42:00,60.0,59.0,29.98,East,81,0.0,0.0,96,0.01,,,0.01,,2013-09-26 11:42:00,
2013-09-26 06:52:00,60.0,59.0,29.98,East,81,0.0,0.0,97,0.00,,,0.01,,2013-09-26 11:52:00,
2013-09-26 07:12:00,59.0,58.0,29.98,East,81,0.0,0.0,97,0.00,,,0.01,,2013-09-26 12:12:00,
2013-09-26 07:22:00,59.0,58.0,29.99,East,81,0.0,0.0,97,0.00,,,0.01,,2013-09-26 12:22:00,
2013-09-26 07:42:00,59.0,58.0,30.00,East,81,0.0,0.0,97,0.00,,,0.01,,2013-09-26 12:42:00,
2013-09-26 07:52:00,59.0,58.0,30.01,East,81,0.0,0.0,97,0.00,,,0.01,,2013-09-26 12:52:00,
2013-09-26 08:11:00,60.0,59.0,30.01,East,81,0.0,0.0,98,0.00,,,0.01,,2013-09-26 13:11:00,
2013-09-26 08:22:00,62.0,61.0,30.01,East,81,0.0,0.0,97,0.00,,,0.01,,2013-09-26 13:22:00,
2013-09-26 08:42:00,63.0,62.0,30.02,East,92,0.0,0.0,96,0.00,,,0.01,,2013-09-26 13:42:00,
2013-09-26 08:52:00,64.0,62.0,30.02,East,95,0.0,0.0,94,0.00,,,0.01,,2013-09-26 13:52:00,
2013-09-26 09:11:00,65.0,62.0,30.02,East,85,0.0,0.0,90,0.00,,,0.01,,2013-09-26 14:11:00,
2013-09-26 09:22:00,66.0,62.0,30.03,ENE,76,0.0,0.0,86,0.00,,,0.01,,2013-09-26 14:22:00,
2013-09-26 09:42:00,68.0,63.0,30.03,East,80,0.0,0.0,85,0.00,,,0.01,,2013-09-26 14:42:00,
2013-09-26 09:52:00,69.0,64.0,30.03,SE,126,0.0,0.0,83,0.00,,,0.01,,2013-09-26 14:52:00,
2013-09-26 10:11:00,70.0,65.0,30.04,South,180,0.0,0.0,83,0.00,,,0.01,,2013-09-26 15:11:00,
2013-09-26 10:22:00,72.0,65.0,30.04,South,178,0.0,0.0,79,0.00,,,0.01,,2013-09-26 15:22:00,
2013-09-26 10:44:00,73.0,65.0,30.04,SSE,157,0.0,0.0,76,0.00,,,0.01,,2013-09-26 15:44:00,
2013-09-26 10:53:00,74.0,66.0,30.04,East,81,0.0,0.0,75,0.00,,,0.01,,2013-09-26 15:53:00,
2013-09-26 11:13:00,74.0,65.0,30.04,ESE,108,0.0,0.0,73,0.00,,,0.01,,2013-09-26 16:13:00,
2013-09-26 11:24:00,75.0,65.0,30.04,NE,36,0.0,0.0,72,0.00,,,0.01,,2013-09-26 16:24:00,
2013-09-26 11:43:00,75.0,63.0,30.04,East,92,0.0,0.0,67,0.00,,,0.01,,2013-09-26 16:43:00,
2013-09-26 11:53:00,76.0,64.0,30.04,ESE,103,0.0,0.0,67,0.00,,,0.01,,2013-09-26 16:53:00,
2013-09-26 12:12:00,77.0,64.0,30.03,ENE,70,0.0,0.0,65,0.00,,,0.01,,2013-09-26 17:12:00,
2013-09-26 12:23:00,78.0,64.0,30.03,ENE,74,0.0,0.0,63,0.00,,,0.01,,2013-09-26 17:23:00,
2013-09-26 12:52:00,78.0,62.0,30.02,North,355,0.0,1.0,59,0.00,,,0.01,,2013-09-26 17:52:00,
2013-09-26 13:13:00,78.0,62.0,30.02,NE,43,0.0,0.0,57,0.00,,,0.01,,2013-09-26 18:13:00,
2013-09-26 13:22:00,79.0,61.0,30.02,NE,47,0.0,0.0,55,0.00,,,0.01,,2013-09-26 18:22:00,
2013-09-26 13:42:00,79.0,60.0,30.01,East,100,0.0,0.0,53,0.00,,,0.01,,2013-09-26 18:42:00,
2013-09-26 13:52:00,80.0,61.0,30.01,North,5,0.0,0.0,52,0.00,,,0.01,,2013-09-26 18:52:00,
2013-09-26 14:12:00,80.0,60.0,30.01,East,86,0.0,0.0,50,0.00,,,0.01,,2013-09-26 19:12:00,
2013-09-26 14:22:00,79.0,61.0,30.01,South,171,0.0,0.0,55,0.00,,,0.01,,2013-09-26 19:22:00,
2013-09-26 14:43:00,80.0,60.0,30.00,ESE,105,0.0,0.0,50,0.00,,,0.01,,2013-09-26 19:43:00,
2013-09-26 14:52:00,80.0,60.0,30.00,SSE,153,0.0,0.0,50,0.00,,,0.01,,2013-09-26 19:52:00,
2013-09-26 15:12:00,81.0,62.0,30.00,NNW,340,0.0,0.0,52,0.00,,,0.01,,2013-09-26 20:12:00,
2013-09-26 15:22:00,80.0,60.0,30.00,ENE,74,0.0,0.0,51,0.00,,,0.01,,2013-09-26 20:22:00,
2013-09-26 15:42:00,80.0,60.0,29.99,North,355,0.0,0.0,50,0.00,,,0.01,,2013-09-26 20:42:00,
2013-09-26 15:52:00,81.0,59.0,29.99,ESE,102,0.0,0.0,48,0.00,,,0.01,,2013-09-26 20:52:00,
2013-09-26 16:12:00,81.0,60.0,29.99,South,181,0.0,0.0,49,0.00,,,0.01,,2013-09-26 21:12:00,
2013-09-26 16:23:00,81.0,61.0,29.93,NW,323,0.0,0.0,50,0.00,,,0.01,,2013-09-26 21:23:00,
2013-09-26 16:44:00,81.0,62.0,29.99,North,355,0.0,3.0,53,0.00,,,0.01,,2013-09-26 21:44:00,
2013-09-26 16:54:00,81.0,61.0,29.99,ENE,73,0.0,0.0,51,0.00,,,0.01,,2013-09-26 21:54:00,
2013-09-26 17:14:00,81.0,60.0,29.99,East,87,0.0,0.0,49,0.00,,,0.01,,2013-09-26 22:14:00,
2013-09-26 17:24:00,81.0,62.0,29.99,NE,36,0.0,0.0,52,0.00,,,0.01,,2013-09-26 22:24:00,
2013-09-26 17:43:00,81.0,60.0,30.00,East,97,0.0,0.0,49,0.00,,,0.01,,2013-09-26 22:43:00,
2013-09-26 17:54:00,80.0,60.0,30.00,East,97,0.0,0.0,51,0.00,,,0.01,,2013-09-26 22:54:00,
2013-09-26 18:12:00,79.0,60.0,30.01,East,90,0.0,0.0,52,0.00,,,0.01,,2013-09-26 23:12:00,
2013-09-26 18:23:00,78.0,61.0,30.01,East,90,0.0,0.0,56,0.00,,,0.01,,2013-09-26 23:23:00,
2013-09-26 20:52:00,63.0,59.0,30.03,East,90,0.0,0.0,87,0.00,,,0.01,,2013-09-27 01:52:00,
2013-09-26 21:12:00,62.0,58.0,30.04,East,90,0.0,0.0,88,0.00,,,0.01,,2013-09-27 02:12:00,
2013-09-26 21:22:00,62.0,58.0,30.04,East,90,0.0,0.0,88,0.00,,,0.01,,2013-09-27 02:22:00,
2013-09-26 21:42:00,61.0,58.0,30.04,East,90,0.0,0.0,89,0.00,,,0.01,,2013-09-27 02:42:00,
2013-09-26 21:53:00,61.0,57.0,30.05,East,90,0.0,0.0,88,0.00,,,0.01,,2013-09-27 02:53:00,
2013-09-26 22:12:00,61.0,58.0,30.05,East,90,0.0,0.0,90,0.00,,,0.01,,2013-09-27 03:12:00,
2013-09-26 22:22:00,60.0,57.0,30.06,East,90,0.0,0.0,90,0.00,,,0.01,,2013-09-27 03:22:00,
2013-09-26 22:44:00,60.0,57.0,30.06,East,90,0.0,0.0,91,0.00,,,0.01,,2013-09-27 03:44:00,
2013-09-26 22:55:00,59.0,56.0,30.05,East,90,0.0,0.0,91,0.00,,,0.01,,2013-09-27 03:55:00,
2013-09-26 23:14:00,59.0,56.0,30.06,East,90,0.0,0.0,91,0.00,,,0.01,,2013-09-27 04:14:00,
2013-09-26 23:24:00,59.0,57.0,30.06,East,90,0.0,0.0,92,0.00,,,0.01,,2013-09-27 04:24:00,
2013-09-26 23:44:00,58.0,56.0,30.06,East,90,0.0,0.0,92,0.00,,,0.01,,2013-09-27 04:44:00,
2013-09-26 23:54:00,59.0,57.0,30.06,East,90,0.0,0.0,93,0.00,,,0.01,,2013-09-27 04:54:00,